Tracking 18987 objects as of 25-Feb-2018
HD Live streaming from Space Station
objects crossing your sky now

FENGYUN 1C DEB

Track FENGYUN 1C DEB now!
10-day predictions


NORAD ID: 36700
Int'l Code: 1999-025DZW
Perigee: 846.2 km
Apogee: 1,076.0 km
Inclination: 99.9 °
Period: 104.1 minutes
Semi major axis: 7332 km
RCS: 0.0103 m2 (small)
Launch date: May 10, 1999
Source: People's Republic of China (PRC)
Launch site: Taiyaun Space Center, China (TSC)

Note: This is SATELLITE DEBRIS
aabbcc
Your satellite tracking list
Your tracking list is empty




NASA's NSSDC Master Catalog

Two Line Element Set (TLE):
1 36700U 99025DZW 18052.77144622  .00000518  00000-0  47324-3 0  9997
2 36700  99.8858 255.9249 0156738  59.3355 302.3141 13.82798447498751
Source of the keplerian elements: AFSPC